Theta_e
293 293 293 293 292 293 292 293 293 294 294 294 294 294 295 295 296 295 294 294 292 292 293 294 293 295 295 296 298 299 298 296 288 285 287 287 286 286 285 286 286 286 285
291 291 291 292 291 290 290 291 291 291 291 291 291 291 291 291 291 291 290 291 291 290 290 291 291 293 291 292 293 293 294 294 289 285 285 285 285 285 285 284 286 286 283
289 289 289 289 289 289 289 289 290 290 290 290 290 289 289 289 289 289 288 288 287 287 287 287 288 290 288 289 289 290 290 291 290 287 284 284 284 284 283 283 282 282 283
287 287 286 287 287 287 288 288 288 289 288 288 289 288 288 288 288 287 287 286 286 286 286 286 286 286 285 286 286 286 287 286 286 284 283 282 281 281 281 280 280 280 280
285 285 284 285 286 286 286 286 286 286 286 287 287 287 288 288 287 286 286 285 284 283 284 284 285 285 287 286 285 284 285 284 283 282 280 280 279 279 279 278 278 278 278
284 283 284 284 284 284 284 284 284 284 284 284 284 284 285 286 287 286 284 283 282 282 280 281 281 283 285 286 287 287 285 282 281 281 279 278 277 278 278 277 277 276 275
283 283 283 283 282 282 282 283 282 282 283 283 283 283 282 283 285 284 283 281 280 280 280 280 279 280 280 280 282 282 282 284 284 280 278 277 277 277 277 276 276 275 275
282 282 282 282 281 281 281 281 281 282 281 281 281 282 282 283 285 284 283 281 281 280 280 280 280 280 280 279 278 277 278 279 278 278 277 276 276 277 276 276 275 274 274
280 281 281 281 281 280 280 279 280 280 280 280 281 281 281 282 285 284 281 279 279 279 279 279 279 280 284 282 278 277 276 276 281 282 282 281 281 280 278 275 270 268 267
279 280 280 281 280 279 279 279 280 280 280 281 281 280 281 281 286 285 282 280 279 279 280 281 282 281 283 282 279 278 276 276 277 277 277 278 277 277 278 275 273 266 266
279 279 279 280 279 279 279 279 279 279 279 278 278 278 280 280 283 285 284 281 280 280 279 279 280 283 283 283 281 278 277 277 276 274 274 274 275 275 274 274 275 272 266
277 277 276 277 279 279 277 278 278 277 277 276 276 276 277 278 283 284 284 283 282 279 278 278 278 282 282 282 280 281 281 277 270 269 269 271 272 272 272 271 270 270 271
274 273 274 275 278 278 277 277 276 275 275 274 275 274 275 277 277 282 283 283 282 278 279 280 281 281 281 279 281 281 274 270 269 267 268 270 271 270 269 271 267 266 264
272 273 273 273 274 274 276 276 275 275 275 275 275 274 272 274 276 279 280 280 281 279 278 275 280 280 281 278 274 276 275 273 272 272 271 273 274 274 274 274 273 273 265
270 271 272 273 272 273 274 272 274 274 275 271 270 272 277 278 279 284 283 282 281 280 276 278 278 277 277 276 277 276 276 276 275 275 274 274 273 272 272 272 269 264 264
269 270 270 270 270 272 271 273 281 282 283 283 283 282 282 283 284 284 284 285 285 285 277 278 278 277 274 274 275 275 275 275 274 273 270 267 266 269 269 264 264 262 264
267 269 268 269 270 269 269 272 269 274 283 282 282 281 281 281 282 281 282 283 281 278 273 271 271 271 270 270 270 270 269 269 268 268 266 265 266 263 263 262 261 260 259
261 263 264 265 266 266 267 273 274 274 274 275 279 277 279 281 279 277 277 273 269 269 268 267 266 267 267 266 266 266 264 262 262 264 264 264 262 261 260 261 261 259 260
263 263 262 263 264 266 271 274 273 273 273 272 271 271 269 275 274 272 270 263 261 262 262 262 262 263 263 264 264 263 263 263 263 263 262 261 261 259 258 258 259 260 258
262 265 263 262 265 271 272 272 272 272 268 266 264 264 261 262 262 260 260 256 256 257 259 258 259 260 260 260 260 261 261 261 260 258 257 257 258 258 258 258 258 259 256
260 261 262 262 263 264 264 265 264 263 262 260 261 268 269 259 257 257 256 258 257 257 257 256 256 256 255 254 252 252 252 254 255 257 257 257 256 256 258 259 256 255 255
261 260 261 261 261 262 261 261 261 261 260 259 258 261 266 260 257 256 255 255 256 256 256 254 253 253 254 255 256 255 255 256 255 256 256 255 255 253 252 252 253 252 251
260 259 259 260 259 259 260 258 258 257 257 255 256 256 256 256 255 257 258 258 259 260 260 259 258 259 258 257 256 259 259 260 260 260 257 256 255 254 251 253 254 253 251
258 258 258 257 257 257 257 256 257 257 255 255 254 255 256 255 255 255 256 256 258 258 257 257 257 256 256 256 256 255 257 262 263 262 261 259 258 256 255 252 255 257 257
256 256 256 255 255 254 255 255 256 254 254 256 254 253 252 252 252 253 253 255 255 256 256 255 256 255 255 256 256 257 257 260 261 265 264 256 257 256 255 256 258 257 252
255 256 255 255 255 253 252 252 251 251 251 251 251 251 251 251 251 251 251 252 252 252 253 254 255 255 255 256 255 258 261 265 264 265 264 257 256 255 253 254 256 253 254
Wind_Speed
8 7 9 9 9 10 11 9 7 8 6 7 8 8 8 8 8 8 8 8 11 9 7 6 7 5 4 3 3 3 3 3 6 3 3 3 3 4 6 4 4 4 4
7 8 11 10 10 11 10 9 8 9 8 9 10 9 11 10 10 9 10 9 11 11 9 8 8 5 9 6 4 7 5 4 4 8 3 2 3 2 3 4 5 6 4
9 9 11 12 11 11 10 10 10 10 11 12 11 12 12 10 11 11 11 12 13 11 11 9 8 7 9 6 5 6 6 4 4 5 4 2 2 2 2 1 3 1 1
11 13 14 12 12 10 10 12 11 10 11 12 11 13 12 11 11 11 13 14 12 13 11 11 10 9 8 7 6 7 6 6 6 5 5 4 3 1 1 2 1 0 1
16 14 13 11 11 11 11 12 11 12 12 11 12 13 12 11 9 10 12 13 12 12 12 11 10 10 13 8 5 4 5 5 5 5 3 3 3 2 2 1 1 1 1
14 14 11 12 11 12 10 12 12 13 13 12 13 12 12 9 19 19 13 11 10 10 9 8 6 7 13 17 18 17 8 4 4 3 2 3 3 2 2 2 1 1 1
16 12 11 11 12 12 10 12 13 12 10 12 12 11 12 11 17 17 15 9 9 8 7 6 6 5 6 7 14 16 16 18 12 3 4 3 3 2 3 2 1 1 1
14 13 10 10 11 10 11 13 12 9 11 10 10 9 9 10 16 16 15 9 9 8 7 6 6 6 6 6 7 9 9 10 9 6 7 4 5 4 3 2 2 1 3
11 10 8 8 11 10 11 10 8 9 10 10 8 9 9 9 14 14 11 7 8 8 7 7 6 6 9 9 6 7 6 6 8 11 10 8 7 5 4 3 2 3 3
11 10 9 8 9 9 7 7 5 6 7 7 9 7 9 7 14 12 8 4 7 5 5 6 11 7 11 9 5 4 4 3 4 4 4 4 5 3 3 1 2 2 1
8 7 9 9 8 7 5 5 5 5 6 6 7 6 8 7 9 14 13 5 4 4 4 4 3 9 10 11 10 5 4 3 4 3 3 2 2 1 0 1 2 3 2
5 6 6 5 5 5 5 5 5 5 5 5 5 5 4 5 10 12 14 12 8 3 4 2 2 7 6 7 5 6 4 5 3 3 2 2 2 1 1 1 2 2 2
6 7 6 6 6 5 5 5 3 4 4 3 3 3 3 4 4 12 12 12 11 4 2 6 8 8 8 6 8 7 4 3 2 2 2 2 1 2 1 2 2 4 4
6 6 5 6 6 5 4 3 4 4 4 4 4 4 3 3 4 3 2 2 5 4 5 3 4 4 6 5 3 4 2 1 1 1 1 2 2 1 1 1 2 1 1
6 7 7 5 5 5 4 2 3 1 3 2 1 2 2 2 2 4 3 1 1 3 3 1 1 0 1 1 1 2 1 1 1 1 1 3 3 3 3 0 1 2 1
5 5 4 4 4 4 4 4 9 9 9 8 8 7 3 10 10 10 10 10 9 2 1 1 2 3 4 3 3 3 2 5 4 3 2 2 2 2 2 3 1 1 3
5 5 4 4 3 3 3 4 4 6 11 15 14 14 14 11 12 15 12 11 17 12 6 6 5 5 4 4 4 4 4 4 3 3 2 2 3 2 3 3 2 1 2
3 4 2 2 2 2 2 4 4 2 2 3 12 14 14 14 16 17 12 11 6 8 5 5 4 5 4 4 4 4 2 3 2 2 2 3 2 1 2 3 3 2 3
2 2 2 2 1 2 4 4 2 2 3 5 4 9 11 14 17 19 19 7 4 6 5 4 3 3 4 4 4 3 3 3 3 3 2 2 3 2 2 3 3 4 3
5 7 4 3 2 4 4 4 4 5 6 5 3 2 3 5 6 6 5 3 3 2 1 1 2 2 2 2 2 3 4 4 4 2 2 2 2 1 2 3 3 4 2
1 2 5 4 5 5 5 6 5 5 4 3 4 5 12 4 3 2 2 3 2 2 2 2 2 2 2 2 2 2 2 2 2 2 2 2 2 2 2 3 3 3 3
3 3 3 3 2 4 4 4 4 5 4 4 3 6 12 4 3 2 2 3 3 2 1 1 2 2 2 2 3 3 3 4 3 3 3 2 2 2 2 2 3 2 3
4 4 5 4 4 5 6 4 4 3 3 2 2 2 2 3 3 3 3 3 3 4 4 3 3 4 4 4 3 3 4 5 5 3 4 4 4 3 2 3 3 3 2
5 5 4 3 3 4 4 4 4 5 4 4 4 3 3 2 2 3 3 3 4 4 2 3 3 4 4 4 3 3 4 5 5 6 7 5 5 4 3 3 4 6 5
4 5 5 4 4 3 3 4 3 3 2 3 3 2 2 3 3 3 3 3 4 4 5 5 4 5 6 9 8 8 8 11 8 10 5 4 6 6 5 4 6 5 4
4 5 5 4 4 3 3 3 2 3 3 3 3 3 2 2 2 2 3 4 4 5 7 5 6 9 9 8 9 10 10 12 12 13 3 4 5 5 4 5 8 4 5
Wind_Direction
68 76 76 68 62 59 58 52 49 55 40 48 50 49 45 48 48 52 50 70 71 60 33 82 80 79 87 74 97 91 90 101 113 106 89 104 98 130 135 128 152 178 223
68 87 81 79 72 71 66 61 57 61 53 57 59 58 56 48 50 60 71 50 78 71 64 55 56 75 68 43 36 62 64 32 103 123 109 119 90 122 116 153 192 207 200
58 70 78 70 70 68 67 63 60 64 58 62 63 64 63 55 64 67 75 73 67 66 55 50 39 54 61 48 39 52 56 56 50 119 115 88 95 100 106 182 206 209 246
61 56 57 53 58 60 64 65 59 55 63 62 61 66 59 63 62 68 71 70 65 66 61 55 47 49 58 62 56 49 53 60 67 81 72 90 94 105 118 136 141 108 329
49 51 48 52 55 62 65 69 67 64 58 60 63 63 61 55 60 59 67 74 70 68 62 59 56 62 70 77 91 93 119 106 103 102 109 115 113 126 154 129 115 335 30
55 50 48 52 51 50 53 66 67 64 63 62 60 63 63 64 71 75 73 77 77 78 75 63 54 49 65 71 69 68 66 92 96 91 88 102 103 107 106 111 115 77 311
57 42 38 54 53 49 43 55 58 59 62 63 63 64 71 75 83 87 86 84 86 79 79 77 70 52 52 62 66 62 51 55 57 97 103 87 116 118 137 119 112 139 257
54 49 40 52 61 58 58 54 54 55 57 60 52 48 62 67 73 76 75 74 73 65 68 66 69 62 59 59 64 63 52 49 44 52 72 78 87 93 100 112 140 309 320
51 52 47 42 61 57 58 54 45 57 59 59 47 53 58 57 62 68 66 57 68 62 51 50 55 52 63 74 77 77 68 55 54 70 80 86 90 97 103 77 29 51 323
31 27 31 32 53 63 60 64 56 60 67 67 68 45 46 51 61 69 73 85 79 74 54 54 64 59 61 56 63 90 83 46 37 22 23 35 49 45 70 99 146 145 219
26 28 35 31 42 41 39 41 58 73 76 66 70 49 51 40 54 62 66 58 63 60 58 47 31 56 52 50 54 51 70 71 26 31 359 348 348 31 312 179 179 159 171
23 46 36 28 38 40 46 37 36 54 69 58 64 54 35 32 57 58 58 61 63 70 63 37 12 39 40 45 40 48 61 63 41 16 9 339 343 305 324 357 334 299 264
26 32 22 23 33 29 45 39 40 36 57 49 70 65 38 28 37 53 55 54 54 60 42 44 41 37 32 33 16 8 58 43 25 18 341 300 299 320 355 326 286 266 269
41 29 21 31 20 14 23 36 55 45 40 36 34 33 18 18 18 18 40 66 59 49 38 20 41 72 67 65 39 23 21 63 76 330 289 275 253 258 278 263 278 274 320
24 20 17 18 16 14 21 51 59 351 106 107 83 92 44 25 328 356 5 330 146 162 151 215 274 133 24 35 103 104 91 18 333 306 316 345 352 350 291 329 349 337 257
20 15 7 10 15 18 22 13 34 58 65 66 67 52 42 35 22 14 10 1 356 347 59 318 349 12 18 8 11 5 26 30 19 8 353 334 285 289 330 339 358 306 310
19 10 358 8 12 28 20 37 33 4 57 61 56 49 35 18 33 33 19 50 46 55 51 41 36 31 22 21 19 23 17 12 344 26 3 331 314 310 4 330 304 304 295
8 0 353 341 2 23 43 65 65 66 57 42 59 41 23 47 53 36 33 44 38 32 39 40 35 24 19 17 13 9 335 321 348 345 355 10 353 316 326 333 332 322 327
347 349 336 332 29 84 76 80 61 59 69 61 26 26 13 37 51 48 48 56 54 45 22 26 7 5 7 360 356 340 343 350 358 350 348 340 338 4 341 322 316 319 321
359 360 23 24 15 55 59 60 35 49 58 49 22 16 352 36 42 32 33 35 46 50 24 27 356 353 352 348 339 349 350 354 348 328 313 320 319 306 297 301 296 306 281
319 15 30 37 38 32 30 40 40 60 62 35 5 26 67 63 51 40 26 34 37 16 3 351 329 322 311 308 314 320 307 286 289 291 299 297 312 319 312 297 294 286 286
27 55 49 60 55 69 69 66 65 69 63 61 9 22 63 52 46 38 18 1 332 323 335 322 320 298 288 300 307 311 310 304 295 288 292 297 300 296 286 272 292 283 277
47 46 44 45 40 44 55 44 56 58 64 54 39 22 17 29 19 22 16 358 355 356 352 354 345 339 328 317 299 294 297 301 285 255 269 271 273 270 248 267 274 286 272
74 71 71 57 63 60 61 53 51 46 39 32 32 23 20 5 22 5 350 342 343 329 319 326 318 314 315 311 298 280 269 284 272 265 248 245 256 260 254 249 264 272 272
93 92 77 77 73 70 63 56 57 50 37 34 20 17 1 359 354 345 332 335 330 330 323 318 314 312 314 315 310 309 298 302 290 287 258 210 236 247 234 243 264 271 262
71 85 90 83 80 75 74 66 42 36 39 13 9 0 345 336 308 304 308 318 321 311 309 300 301 303 305 299 293 296 294 305 304 299 256 222 231 245 232 237 256 245 255